TJS-15

Last updated on Thu Mar 05 2026 00:03:01 GMT+0000 (Coordinated Universal Time)

1 63157U 25045A 26063.64752995 -.00000275 00000+0 00000+0 0 9995 2 63157 0.2199 88.0626 0006999 265.6894 136.0593 1.00276040 3716
UTC large
Height (km)
Speed (km/s)
/
Latitude / Longitude
Inclination (degrees)
Orbital Period (minutes)
Azimuth
Elevation
Range (km)
Doppler Factor

Next 0 passes for location: London (51.5072 / 0.1276)

Sorry there are no passes over London.